Location: Chmeln�
(49.6483°N, 14.9871°E)
Time: 09:15:23
(UTC+00:00)

Exosat Rocket - Pass Details

Date: 18 September 2020
Orbit: 760 x 2514 km, 72.3° (Epoch: 27 October)

Event Time Altitude Azimuth Distance (km) Brightness Sun altitude
Rises 18:59:15 0° 188° (S) 3,683 6.8 -18.5°
Reaches altitude 10° 19:02:02 10° 183° (S) 2,572 6.0 -18.9°
Maximum altitude 19:07:23 48° 110° (ESE) 1,029 3.7 -19.7°
Drops below altitude 10° 19:12:10 10° 36° (NE) 2,304 5.9 -20.4°
Sets 19:14:32 0° 31° (NNE) 3,260 6.7 -20.7°
